Theta_e
339 336 337 337 332 329 338 344 343 340 339 340 341 341 339 336 335 336 336 339 342 341 337 328 326 333 336 335 329 321 325 332 331 333 336 338 339 339 338 339 341 341 340 340 339 337 335 333 330 323 317 316 315 316 320 324 325 326 327 326 323 321 320 320 320 320 321 321 321 321 321 324 326 329 332 333 335 335 333 333 331 332 332 330 331
340 338 338 336 331 330 340 344 342 341 339 341 341 340 336 334 336 335 337 340 341 340 334 327 330 336 337 335 328 321 328 336 336 334 336 337 337 337 337 338 340 340 340 340 339 337 331 326 322 318 316 315 315 319 326 331 331 332 333 332 331 328 327 326 326 325 324 324 325 325 326 330 332 332 333 333 336 336 334 334 332 330 331 331 331
339 340 338 336 331 331 341 344 343 341 338 340 340 337 336 335 336 335 337 341 341 340 332 328 334 338 337 335 330 324 327 335 336 335 336 336 336 337 337 338 339 339 340 339 337 332 325 321 319 318 317 316 316 319 326 330 332 333 334 335 335 335 334 333 333 332 329 326 327 327 328 332 334 333 330 330 333 336 336 335 332 331 332 332 331
338 340 338 338 332 332 340 342 342 340 337 339 337 336 337 337 336 335 338 341 341 339 332 330 337 339 337 336 334 327 325 333 336 335 335 336 336 336 337 338 340 340 339 338 333 326 324 323 321 320 319 317 317 319 324 329 331 332 333 333 334 335 336 337 337 337 335 331 328 327 327 329 333 334 328 327 329 331 334 332 331 332 334 333 332
337 337 337 338 333 333 337 340 340 337 338 337 336 337 338 337 336 336 339 340 340 339 332 333 340 340 338 337 335 329 325 331 336 335 334 334 336 336 336 337 340 339 338 337 330 324 326 325 324 323 320 319 319 321 325 330 332 332 332 333 334 334 335 336 336 337 337 335 331 328 328 327 332 333 327 327 327 327 328 329 330 332 333 334 333
335 334 335 336 334 334 334 337 337 337 336 335 336 337 338 337 337 338 340 340 340 339 333 335 341 340 339 338 336 330 326 330 334 336 335 334 335 335 335 335 338 338 338 337 328 324 327 326 326 325 323 321 321 323 327 330 330 331 332 333 333 333 334 335 335 335 336 337 332 329 329 328 331 330 327 328 328 328 329 331 332 331 332 334 334
335 333 333 334 334 334 335 336 336 336 335 335 336 337 339 338 338 339 340 340 340 338 335 338 340 339 338 339 338 333 327 328 332 335 335 335 335 335 335 335 337 338 338 336 328 325 328 327 326 325 324 323 322 323 325 327 329 331 331 332 333 333 334 334 335 335 336 337 331 329 329 329 330 329 329 330 329 330 331 332 332 330 332 333 333
337 335 333 332 333 335 336 336 336 335 334 336 337 339 341 340 339 340 341 340 340 338 338 340 340 339 339 339 338 333 330 328 331 335 335 335 335 335 336 336 337 338 339 337 332 329 330 327 326 326 325 324 323 322 323 326 329 330 331 332 332 333 334 333 334 335 335 334 330 329 330 330 330 330 331 331 330 330 330 331 331 331 333 333 333
338 336 333 331 333 337 336 335 335 334 336 337 338 340 341 341 341 341 342 341 341 340 339 341 340 339 339 338 335 333 332 329 330 334 335 335 335 336 336 337 337 338 338 338 335 331 329 327 327 326 325 325 324 324 324 326 328 330 331 332 333 333 332 332 334 335 334 332 330 330 330 331 331 331 331 331 331 331 330 331 331 331 333 334 333
338 335 334 332 333 337 336 334 334 336 338 338 339 341 341 341 341 342 342 342 342 341 340 340 340 340 339 338 335 333 333 330 328 331 335 336 336 337 338 337 337 338 337 336 333 328 328 328 327 327 326 325 325 325 325 326 327 329 330 331 332 330 330 332 333 335 334 332 330 330 331 331 330 331 332 332 331 331 331 330 330 330 332 333 333
337 335 334 332 334 337 335 334 335 338 339 339 341 340 341 341 341 342 342 342 342 341 341 340 340 340 339 338 336 335 334 331 328 327 333 336 337 337 337 337 338 338 336 333 330 328 329 329 328 327 327 326 325 325 324 325 326 328 328 329 327 326 331 333 331 334 335 332 331 331 331 331 331 331 331 332 331 331 331 331 331 331 332 333 333
337 335 334 334 336 336 335 335 336 339 340 341 342 340 340 340 341 342 342 342 342 342 341 340 341 340 339 338 337 337 334 332 328 327 331 335 337 338 338 338 338 336 334 332 330 329 329 329 329 328 327 327 325 325 325 325 326 326 326 325 323 326 334 333 330 333 334 332 331 331 330 330 330 330 331 331 331 331 331 331 332 332 333 334 335
336 335 336 337 337 336 335 336 338 340 341 343 342 340 340 340 341 341 342 342 342 342 341 341 341 339 339 339 338 336 334 331 327 327 332 334 336 337 337 337 337 335 334 332 329 329 330 329 329 328 328 327 326 325 325 324 324 324 324 322 322 330 335 333 332 333 333 332 331 330 330 331 331 330 331 330 331 331 331 331 332 333 333 334 334
335 334 337 338 337 337 336 336 338 340 342 342 341 340 340 341 341 341 341 341 342 341 341 341 340 339 339 338 337 335 333 331 327 327 333 335 335 336 336 336 335 335 334 331 329 329 330 329 329 329 328 327 326 325 323 322 322 324 324 322 327 334 335 334 334 333 333 332 332 331 331 331 331 331 330 331 331 331 331 331 332 333 333 333 333
334 333 335 337 339 339 338 338 339 341 341 341 340 340 340 340 341 341 341 341 342 341 340 340 339 338 338 337 336 335 332 330 327 327 332 335 335 335 335 336 335 335 334 331 330 330 329 329 329 328 327 327 325 324 323 322 323 325 323 324 331 335 335 336 335 334 335 334 332 331 331 331 331 331 331 331 331 331 331 331 331 332 333 333 333
334 331 333 336 339 340 340 340 340 341 341 341 340 340 340 340 340 339 339 340 340 340 340 340 339 338 337 336 335 334 332 330 326 324 331 335 335 335 336 336 336 335 334 331 330 330 329 329 329 328 326 326 325 324 324 323 324 325 324 328 333 335 336 337 335 335 335 334 333 331 331 331 331 332 331 331 331 331 331 331 332 332 333 334 335
333 331 331 334 337 339 340 341 340 341 341 341 340 340 340 340 339 339 339 339 338 338 339 338 336 335 334 333 332 331 331 328 325 323 329 334 335 335 336 335 336 334 332 331 330 330 329 329 328 327 326 325 326 325 325 324 323 324 324 329 334 335 336 336 336 335 334 333 332 331 331 331 332 332 331 332 331 331 331 332 332 333 335 336 336
333 331 331 333 335 338 340 341 340 340 341 341 341 341 340 339 339 338 338 338 337 336 334 333 330 330 330 328 326 326 326 323 323 326 328 333 334 334 335 335 336 333 331 331 330 330 329 329 328 328 327 327 326 326 326 325 323 323 325 329 333 336 336 337 336 335 335 333 332 332 332 332 332 332 332 332 332 333 333 332 333 335 336 336 336
333 331 331 332 334 338 340 340 340 340 340 341 342 342 341 339 338 338 339 337 334 331 329 328 326 325 323 321 319 318 320 318 322 329 327 328 331 332 334 333 334 332 330 331 330 330 329 329 329 328 328 327 326 325 325 324 324 324 326 330 333 337 337 337 337 336 335 333 332 332 332 333 333 334 334 334 334 334 334 333 335 336 336 336 336
334 331 332 331 333 337 339 340 340 340 341 342 342 342 341 339 338 339 337 333 330 329 327 323 319 317 314 313 313 312 314 315 320 327 325 322 324 327 328 328 329 328 329 330 329 329 329 329 329 328 327 325 324 323 323 324 324 324 327 329 333 337 338 338 337 337 335 333 333 333 333 334 334 335 336 336 336 335 334 335 336 336 336 336 335
336 333 332 332 334 336 338 340 340 341 341 342 341 341 341 339 339 338 334 330 330 327 321 314 310 309 309 309 309 309 310 312 315 322 322 320 321 324 324 325 327 327 329 329 329 329 328 327 326 324 323 321 320 320 321 323 323 326 328 329 332 336 338 338 337 336 336 334 333 334 334 334 334 335 336 337 336 336 336 336 336 335 335 335 335
337 334 332 333 335 336 338 340 340 341 341 341 341 341 341 340 338 336 331 331 329 321 312 307 310 316 319 319 316 312 311 312 314 317 319 319 321 323 324 326 327 327 328 327 326 325 324 323 322 321 320 319 319 319 322 324 326 329 333 331 332 336 336 337 337 336 335 334 334 334 334 334 334 336 337 337 336 336 336 336 335 335 335 335 335
337 335 334 333 335 337 339 341 341 341 341 341 341 341 341 339 338 334 331 331 324 312 306 308 318 330 334 334 331 324 317 314 315 317 318 319 320 321 322 323 324 324 324 323 322 321 321 321 321 321 320 320 320 322 325 330 331 332 335 333 331 334 335 336 337 336 336 334 335 334 334 334 336 337 337 337 336 336 336 335 335 334 335 334 333
336 333 333 333 334 337 340 340 341 342 341 342 341 341 340 339 336 332 332 328 316 311 314 320 329 336 338 338 337 335 329 321 318 318 319 320 321 322 322 322 323 323 322 322 321 322 322 323 325 323 322 322 321 325 330 333 334 334 335 334 332 334 334 336 337 336 335 334 334 335 334 335 336 337 336 336 336 335 335 335 335 334 333 332 332
334 332 333 332 333 337 340 340 342 341 341 341 341 341 340 339 336 332 332 322 313 320 329 333 336 337 338 339 338 337 337 332 325 322 319 319 321 322 323 323 323 324 323 323 323 323 326 331 333 332 330 329 327 331 333 334 335 335 335 335 334 335 335 337 337 336 335 334 334 335 335 335 336 336 336 336 335 335 335 334 334 333 332 331 331
335 336 335 335 334 337 340 341 342 341 340 341 340 340 340 338 335 333 330 317 312 326 334 335 337 338 339 340 338 337 338 337 334 329 321 317 320 321 322 323 323 324 323 322 322 324 331 337 337 337 336 334 334 335 335 335 335 336 336 335 334 334 336 338 336 334 333 333 333 334 335 335 336 336 336 335 335 334 334 333 332 331 330 331 330
338 338 337 338 337 338 339 341 341 340 340 340 340 340 339 336 334 333 326 313 313 325 333 335 337 338 339 340 339 338 339 339 337 336 328 318 317 319 320 321 321 322 323 325 326 327 333 337 338 337 336 335 336 335 336 336 335 335 335 334 334 334 337 338 334 331 331 331 331 333 334 334 335 334 334 334 334 333 332 332 331 330 329 329 328
339 339 338 339 339 339 340 341 342 341 341 341 340 339 338 335 334 333 321 311 319 330 334 336 336 337 339 340 340 339 340 339 337 337 335 328 322 320 321 320 321 323 328 332 333 333 335 337 338 337 336 335 335 336 336 336 335 335 334 333 334 336 337 336 331 329 329 328 328 329 329 330 331 331 331 331 330 329 329 330 329 329 329 328 326
340 339 339 339 339 340 341 342 343 342 342 342 341 340 337 335 335 332 319 316 328 335 335 336 337 337 339 340 340 340 340 340 338 336 337 337 334 332 331 329 329 331 334 336 336 337 337 337 337 337 336 335 335 335 335 335 335 334 334 333 335 337 338 335 329 328 327 325 324 324 324 325 325 326 325 325 325 324 325 326 327 327 326 324 321
340 340 339 339 339 340 341 343 343 343 343 342 343 341 336 336 337 332 325 326 333 336 336 337 338 338 339 340 339 340 340 339 338 337 338 339 339 338 337 337 337 337 337 337 337 338 337 337 338 337 336 335 335 334 333 333 334 334 334 333 335 338 337 334 329 327 325 324 323 323 322 322 321 320 319 317 316 315 315 317 320 323 321 316 313
341 340 339 339 339 340 341 342 343 344 343 343 344 340 337 339 339 335 333 334 334 334 337 338 339 339 339 339 338 339 340 340 339 339 340 339 339 339 338 338 338 337 337 337 337 337 337 338 338 336 335 334 335 334 332 332 333 334 333 333 336 338 337 333 328 326 324 323 323 323 322 320 318 316 314 310 307 306 306 306 309 315 316 313 312
342 341 340 340 339 339 341 342 343 344 344 344 344 340 338 341 341 338 338 337 336 335 336 338 339 339 338 337 337 339 340 341 340 340 340 338 339 339 338 337 337 337 337 337 337 337 337 336 336 336 335 334 334 332 330 331 333 333 334 334 336 338 337 332 327 324 323 323 322 322 321 318 316 314 311 307 304 303 304 305 306 310 313 315 316
342 341 340 339 339 340 341 343 343 344 344 344 343 340 340 342 340 340 339 338 338 336 337 338 337 337 338 338 338 340 341 340 340 339 339 339 338 338 337 337 337 337 337 337 337 337 336 335 336 336 335 335 332 330 328 330 331 332 333 335 336 338 336 330 326 325 323 322 320 319 317 316 314 312 310 306 304 304 305 305 307 309 311 315 317
342 341 339 339 339 340 341 343 343 344 344 344 344 342 342 342 341 341 340 339 339 337 337 337 336 337 339 340 339 340 340 339 339 339 339 339 338 338 337 337 337 337 336 336 337 336 336 335 336 335 333 334 332 329 328 328 328 330 331 334 336 337 333 329 327 326 323 320 318 316 314 312 311 309 307 306 304 305 305 306 307 307 308 312 316
341 340 339 339 339 341 342 343 343 343 344 344 345 344 343 343 341 341 340 339 337 337 337 337 336 337 339 340 340 340 339 339 339 339 339 338 337 337 337 337 336 337 336 336 336 335 335 334 335 334 334 334 331 329 328 327 325 326 329 331 334 334 332 329 326 323 320 317 315 313 312 310 309 307 305 305 305 305 305 306 307 306 306 309 311
341 339 338 339 340 342 342 342 342 343 344 344 344 344 343 342 341 340 339 337 337 336 336 337 337 338 339 339 339 340 339 339 338 339 339 338 337 337 337 337 337 337 337 336 336 335 334 334 334 335 335 333 330 328 327 326 324 324 325 326 328 329 328 325 321 317 315 314 313 311 310 309 308 305 302 303 304 305 305 305 306 307 307 308 308
340 340 338 338 341 342 342 342 342 342 343 343 344 344 343 341 341 340 338 336 337 337 336 337 338 338 339 339 339 339 339 339 338 338 338 338 337 337 336 337 337 337 336 335 335 335 335 334 334 334 334 332 328 326 325 325 324 322 321 321 321 321 321 318 316 314 313 311 310 310 309 308 307 304 302 301 302 303 304 305 306 307 307 308 308
340 339 338 337 339 341 342 342 342 343 342 342 343 343 342 341 340 340 338 336 336 337 336 338 338 338 338 338 339 338 339 339 337 337 338 337 337 337 337 337 336 336 335 334 334 335 335 335 334 333 332 331 328 326 325 323 322 321 319 318 317 316 315 314 313 312 312 311 310 309 308 307 306 305 304 303 302 300 300 303 305 306 306 305 306
339 339 338 337 337 339 341 342 342 343 342 342 342 342 341 340 340 340 338 336 335 336 337 338 338 338 338 338 338 338 339 339 337 337 337 337 337 337 337 336 335 335 334 333 334 334 334 335 334 332 332 330 328 327 325 323 322 320 319 317 316 315 314 313 312 312 312 311 310 309 308 307 305 305 305 305 304 301 299 300 301 302 304 304 304
339 338 337 337 337 337 339 341 342 343 342 342 342 342 341 341 340 339 337 336 336 337 338 338 338 338 338 338 338 338 338 338 337 337 337 337 337 336 336 335 335 335 334 334 333 333 333 334 334 331 331 330 327 325 325 324 322 318 317 315 315 314 313 312 311 311 311 310 310 309 308 307 306 305 305 304 304 303 301 301 300 299 301 302 303
338 338 338 337 337 337 338 340 342 343 342 342 342 341 341 341 340 339 337 337 338 338 339 338 338 339 339 338 338 338 338 337 337 337 337 337 337 336 336 335 335 335 334 334 333 333 332 332 333 331 330 329 325 323 325 325 322 318 316 315 313 312 311 311 310 310 310 309 309 308 308 307 306 306 305 305 305 304 303 304 303 300 299 300 300
339 338 338 337 337 338 338 340 342 342 342 342 341 341 341 341 340 339 338 338 339 339 339 338 338 339 339 339 338 339 338 337 337 337 337 337 336 335 335 334 334 334 334 333 333 333 332 332 332 330 330 329 326 324 325 326 323 318 316 315 314 312 310 309 309 309 308 307 307 307 307 307 306 306 306 306 305 304 304 304 304 302 300 300 300
339 338 338 337 337 338 339 340 342 342 342 342 342 341 341 340 340 339 338 338 339 339 339 339 339 339 339 338 339 339 338 337 337 336 337 337 335 334 334 333 333 333 333 332 332 332 332 332 331 330 330 328 326 324 325 326 324 319 318 319 318 315 314 311 308 309 308 307 307 307 307 306 306 306 306 306 305 304 303 303 303 302 301 302 301
339 338 338 337 338 339 340 341 341 342 342 342 342 341 341 340 339 339 338 338 339 339 339 339 339 339 339 339 339 338 337 336 336 336 336 335 335 334 333 332 332 332 331 330 330 330 330 330 330 329 329 328 325 323 324 326 325 321 321 322 319 317 321 316 309 307 308 308 308 308 307 306 305 305 305 305 304 303 302 302 302 301 302 303 302
339 339 338 337 338 340 340 341 341 341 341 341 341 341 341 340 339 339 339 339 340 339 339 339 339 339 339 339 338 338 336 336 335 335 335 334 334 333 333 332 331 330 330 329 329 329 328 329 329 328 328 329 325 323 325 326 327 325 323 323 321 323 326 318 309 307 306 306 307 307 308 306 305 305 304 303 303 303 302 300 301 301 301 302 302
341 340 338 338 338 340 340 341 341 341 341 341 341 341 341 340 339 339 339 340 339 339 339 339 339 339 338 338 338 336 335 334 334 334 333 333 333 332 332 331 330 329 329 328 328 329 328 328 329 328 327 329 327 324 325 327 327 324 323 324 324 327 325 314 309 311 307 306 305 305 306 306 305 304 303 303 303 303 301 300 300 301 301 302 302
341 340 339 338 338 340 341 341 341 341 341 342 341 341 341 340 339 339 339 339 339 339 339 339 339 339 337 337 336 335 334 333 333 333 332 332 332 331 331 329 329 327 327 327 328 328 328 327 328 327 326 327 328 326 325 326 325 323 323 323 321 323 321 313 312 314 312 310 307 305 304 304 305 305 303 304 303 302 301 300 300 301 301 302 302
341 341 339 338 338 339 340 340 341 341 341 341 341 341 340 340 339 339 339 339 339 339 339 339 339 338 337 336 335 334 333 333 332 331 331 330 330 329 329 328 327 326 326 326 327 326 327 327 326 327 326 325 326 326 326 325 324 322 321 321 320 320 319 314 313 313 316 316 311 307 306 303 303 306 305 304 303 301 301 301 301 302 302 302 303
342 341 339 339 339 339 340 340 341 341 342 342 342 341 341 340 339 338 338 338 338 338 339 338 338 337 336 335 334 333 332 331 331 330 329 329 327 327 327 325 324 325 325 325 326 325 325 326 325 325 326 324 322 323 325 325 324 323 319 316 317 317 315 314 313 311 313 318 315 309 307 304 304 305 305 305 303 302 302 302 302 303 303 303 303
342 341 340 339 339 339 339 340 341 341 342 342 342 341 341 340 339 338 338 337 338 338 337 337 337 336 334 333 332 332 331 330 330 329 328 327 326 325 325 323 322 324 325 324 325 324 324 324 323 323 323 322 318 316 319 321 321 320 316 313 314 314 311 312 313 312 310 312 314 310 307 305 305 306 304 303 303 303 303 303 303 303 304 304 303
342 341 340 339 339 340 340 340 341 341 341 342 342 341 341 340 339 338 338 337 337 337 336 335 335 334 333 332 331 330 330 329 328 327 326 325 324 323 323 321 321 323 323 324 324 324 323 322 322 321 320 318 315 312 313 314 314 315 313 311 312 311 311 310 310 312 310 309 313 312 308 306 306 308 306 304 304 305 304 304 304 304 304 303 302
Wind_Speed
26 26 25 23 20 19 20 20 20 20 19 18 18 16 16 16 15 15 16 16 17 16 16 15 15 15 15 15 15 14 15 16 15 16 17 16 16 15 15 15 13 13 14 14 13 12 11 12 13 15 17 19 20 21 21 21 22 22 22 22 23 23 23 23 22 21 20 19 19 18 17 16 15 15 15 16 16 14 13 14 15 16 15 15 15
29 27 27 23 21 20 21 21 20 20 19 19 18 17 17 16 15 15 16 16 16 16 15 15 14 15 15 15 16 16 16 17 16 16 16 16 16 15 15 15 13 13 14 14 13 12 12 14 16 17 18 19 20 20 19 19 18 18 18 19 19 20 21 21 21 20 19 18 17 17 16 14 14 15 15 17 17 14 14 15 16 16 16 15 15
30 28 26 23 22 21 22 21 20 20 20 19 18 18 17 16 16 16 16 15 15 15 14 14 14 15 15 16 17 17 17 17 17 17 16 15 15 15 16 14 13 14 14 14 13 13 14 16 17 18 18 19 19 19 18 17 16 16 16 16 16 16 16 17 17 17 16 16 16 16 16 15 14 14 15 16 16 15 14 14 14 16 16 15 15
31 29 26 23 21 22 22 21 20 20 20 20 19 19 17 16 16 16 16 15 15 14 14 13 13 14 14 16 17 17 17 18 17 17 17 16 15 15 15 14 14 15 13 12 13 15 16 17 17 18 17 18 18 18 17 17 16 15 15 14 13 13 12 12 12 12 12 13 14 14 16 16 13 13 15 16 15 15 14 13 14 16 16 15 15
32 29 26 24 22 23 22 22 20 20 20 20 20 19 18 17 17 17 16 15 14 14 13 12 12 13 13 15 17 17 16 18 18 17 17 17 16 15 14 15 15 13 12 12 14 16 17 17 17 17 16 16 16 16 16 16 15 14 13 12 11 11 11 10 10 9 7 8 10 11 14 16 14 13 15 15 15 14 14 14 15 16 16 15 14
33 30 27 25 24 23 23 23 22 22 22 21 21 19 18 17 17 16 15 15 14 13 13 12 12 12 12 14 16 17 16 17 20 18 16 16 16 15 15 15 14 12 13 13 14 16 16 16 16 15 15 15 15 15 15 14 13 12 11 10 10 10 11 11 11 10 4 5 8 10 12 15 14 14 14 14 14 14 14 14 14 15 15 14 14
32 31 28 26 25 24 24 24 23 23 23 22 21 19 18 17 17 16 15 14 14 13 12 12 11 11 12 13 14 15 16 17 19 20 17 15 14 14 15 14 13 12 12 13 14 16 15 15 15 14 14 13 14 14 14 13 11 10 9 9 9 10 11 12 13 11 3 8 9 10 12 14 14 13 13 13 13 13 13 14 14 14 14 14 13
31 31 28 27 26 25 25 24 24 24 23 22 21 19 18 17 17 15 14 14 14 13 12 12 11 11 12 12 13 14 15 16 17 20 19 16 13 14 14 13 12 12 12 12 13 14 14 14 14 13 13 13 13 13 12 11 10 9 9 9 9 10 11 13 13 9 4 9 11 11 12 13 13 13 12 12 12 12 12 12 13 13 13 13 13
31 30 28 27 26 26 25 25 24 24 23 22 20 19 18 17 16 15 14 13 13 13 12 11 11 11 11 11 12 12 13 14 17 19 19 17 15 14 14 13 13 11 11 11 11 12 13 13 13 12 12 12 12 12 11 10 9 9 9 9 9 10 12 14 11 8 6 9 11 11 11 12 13 13 12 11 11 11 11 11 12 12 12 12 13
30 29 27 26 26 26 25 25 24 23 23 22 21 19 18 17 16 15 14 13 12 12 12 11 11 10 10 10 11 12 12 12 14 17 18 17 16 14 14 14 12 10 9 10 11 12 12 12 12 11 11 11 11 11 10 9 8 8 9 9 10 11 14 13 9 8 7 8 10 11 10 11 12 12 11 11 11 11 11 11 11 11 11 11 12
29 28 27 26 26 25 25 25 24 23 22 21 20 19 18 17 16 15 13 13 12 12 11 10 10 10 9 10 11 11 11 11 11 14 17 17 16 13 12 12 11 9 8 8 10 11 11 11 11 11 10 10 10 10 9 8 8 8 9 10 10 13 14 12 9 7 7 8 9 10 9 9 11 11 10 10 11 12 12 11 10 10 10 11 12
29 29 27 25 25 25 25 24 23 22 21 20 20 20 19 18 16 15 14 13 12 12 11 10 10 10 9 9 9 9 9 10 10 12 15 16 15 12 10 10 10 9 7 7 8 10 11 10 10 10 9 9 9 9 9 8 8 8 10 10 11 14 15 13 11 9 10 9 9 9 8 8 10 10 10 10 11 12 12 12 11 11 11 11 12
30 28 26 25 24 25 25 23 23 21 20 20 19 20 19 18 16 15 14 13 13 12 12 11 10 10 9 8 7 6 7 8 10 12 13 13 13 11 10 9 9 8 7 7 8 10 10 9 9 9 9 8 8 8 8 8 8 9 10 11 12 14 15 14 14 13 11 9 8 8 7 8 10 9 9 10 11 11 12 12 12 12 11 10 9
30 28 26 25 24 23 24 24 22 21 20 19 19 20 18 18 17 16 15 14 13 12 12 11 10 9 8 8 6 5 5 7 9 12 12 11 11 10 10 9 8 8 7 7 8 9 9 9 8 8 8 8 8 8 8 8 8 9 10 11 13 15 14 13 13 13 10 9 8 8 8 8 9 8 9 10 10 10 11 11 11 11 10 9 9
29 29 26 25 23 21 22 23 22 21 20 20 20 20 19 18 17 16 15 14 14 12 12 11 10 9 8 7 6 5 5 6 9 12 13 11 10 10 10 9 8 7 7 7 9 9 8 8 8 7 7 7 7 7 7 7 7 9 10 11 13 15 14 11 11 10 8 8 8 7 7 8 8 9 9 9 9 9 9 9 10 10 10 10 10
28 28 26 24 23 21 22 21 21 21 20 20 20 19 19 18 17 16 15 14 13 13 12 11 10 9 9 8 7 6 6 6 7 11 13 11 10 10 10 9 8 8 8 8 10 9 8 8 7 7 6 6 6 6 6 5 6 8 9 11 12 13 13 11 11 9 7 6 6 6 7 8 8 9 9 9 8 8 8 8 8 9 11 11 11
28 28 26 25 23 22 22 21 20 20 19 19 19 19 19 18 17 16 15 13 12 12 11 10 9 9 8 8 7 7 7 7 7 10 13 13 11 10 10 10 8 9 9 9 10 10 9 8 7 7 6 5 5 4 4 4 5 7 8 10 11 11 11 9 10 8 7 6 6 6 8 8 8 9 8 8 7 7 7 7 8 9 11 11 11
28 28 27 25 23 23 23 22 20 20 19 19 18 18 18 18 16 15 14 12 11 10 9 8 7 8 8 8 8 7 7 7 8 10 12 13 12 11 11 10 8 10 11 10 11 10 9 8 7 6 5 3 2 2 2 3 5 6 7 9 11 10 9 7 7 7 6 6 6 6 7 8 8 8 8 8 7 6 6 7 8 9 10 10 10
27 28 27 26 24 24 24 23 21 21 20 20 19 18 17 17 16 14 13 11 10 9 8 7 7 7 8 8 8 8 8 8 9 10 10 12 12 12 12 11 10 11 12 11 11 10 8 7 6 5 3 2 1 0 2 3 4 6 7 9 10 9 7 6 6 5 5 5 6 6 8 8 8 8 8 7 7 6 6 8 9 9 9 9 10
26 27 27 26 25 25 25 23 22 22 21 21 20 18 17 17 15 14 12 11 9 8 7 7 7 7 8 9 8 9 9 9 11 10 9 10 11 12 12 12 11 12 12 12 11 9 8 6 5 4 3 2 2 0 1 3 4 6 7 8 8 7 6 5 4 4 4 5 5 7 8 8 8 8 7 7 6 6 6 7 8 8 9 9 9
24 26 26 26 25 26 25 23 23 22 22 21 20 19 17 17 16 14 12 10 9 7 8 8 9 10 10 10 9 9 9 9 10 11 10 10 10 10 10 10 10 11 12 11 10 8 7 6 5 4 3 2 2 1 1 2 5 6 6 7 5 3 4 3 2 3 3 4 5 7 7 7 8 8 7 6 6 6 7 7 8 9 10 10 11
24 25 25 26 26 26 25 24 24 23 22 21 20 20 18 17 17 15 13 11 9 9 10 12 14 14 14 12 11 10 9 9 9 10 10 10 10 10 10 10 10 10 10 10 9 8 6 5 4 2 2 1 1 0 2 3 5 6 6 5 3 0 1 0 1 2 3 4 6 7 7 7 8 8 7 7 7 8 9 9 9 10 11 12 13
25 26 25 26 27 27 25 25 25 23 23 21 21 20 19 18 17 15 13 11 11 13 14 16 17 15 14 12 12 11 10 9 9 9 9 10 10 9 10 10 10 9 9 9 8 6 5 3 2 1 0 1 1 2 3 4 5 5 5 4 1 2 2 2 1 2 3 5 7 7 6 7 8 8 8 9 10 10 10 11 11 11 11 12 12
27 28 27 27 27 27 27 26 25 24 23 21 21 21 20 19 17 15 13 12 14 16 17 17 16 13 11 10 10 11 11 10 9 8 8 9 9 10 10 9 10 9 8 8 6 5 3 2 1 1 1 2 1 3 4 3 5 4 4 4 3 3 3 2 1 2 5 6 7 7 6 7 9 9 9 10 10 10 11 11 11 11 11 12 12
29 28 28 28 28 28 28 27 25 24 24 22 21 22 21 19 17 15 13 14 17 19 19 17 15 13 10 9 8 9 10 9 9 8 8 8 9 9 9 9 9 8 7 6 5 3 2 1 1 1 1 1 1 3 4 4 4 4 4 3 4 4 3 2 1 4 5 7 8 7 7 8 9 9 10 11 11 11 11 11 11 10 10 11 11
28 28 29 29 29 29 28 27 25 25 24 23 22 22 21 19 18 16 14 16 19 20 19 17 14 12 10 8 8 9 9 8 7 7 7 8 8 8 8 8 8 7 6 5 5 4 3 3 1 1 1 1 1 2 3 3 3 4 2 4 5 4 5 3 3 5 6 7 8 7 7 7 8 8 10 10 10 11 11 10 10 10 10 10 10
28 28 30 30 29 29 28 27 25 25 25 23 23 23 21 19 18 16 16 19 21 19 18 16 14 12 10 9 9 9 9 8 7 7 7 9 9 9 9 8 8 7 7 6 5 5 4 3 2 2 2 3 4 3 2 1 1 1 2 6 6 6 7 5 5 7 8 9 9 7 6 5 5 5 5 6 6 7 8 9 9 10 9 8 9
28 28 30 31 30 29 28 27 26 25 25 24 23 23 21 20 18 17 17 20 21 19 17 15 12 11 11 11 11 10 9 9 9 9 9 9 9 9 9 9 9 8 7 6 5 5 4 4 3 3 2 4 6 5 5 4 3 3 4 6 8 9 8 7 8 9 9 10 10 8 7 5 4 4 5 5 5 6 7 7 8 9 8 7 8
29 29 30 31 31 31 30 28 27 26 25 25 23 22 22 20 19 19 20 22 21 18 15 14 12 12 13 14 13 11 11 10 11 11 10 9 9 9 9 9 9 8 7 7 6 5 5 5 4 4 3 5 7 6 4 5 5 4 5 7 10 10 9 9 9 10 10 11 11 10 8 8 7 6 6 6 6 7 7 7 6 6 6 7 9
31 31 31 31 31 31 31 30 28 27 26 25 24 23 23 22 22 20 21 22 19 17 14 14 13 14 16 15 14 13 12 12 12 12 11 11 12 11 11 11 10 9 9 9 8 7 6 6 6 5 4 5 6 5 3 7 8 6 7 10 12 11 10 10 10 10 11 11 11 10 9 8 8 8 8 8 8 7 7 7 7 7 7 9 11
32 32 33 32 31 32 32 31 30 28 27 26 24 24 24 24 22 21 22 20 18 17 15 15 17 17 16 15 14 13 13 13 13 13 13 13 14 14 13 12 11 11 11 10 9 7 7 8 7 6 6 7 5 3 4 7 9 9 8 12 16 14 11 10 11 11 11 11 9 8 8 8 8 9 9 9 9 8 9 9 9 9 10 12 13
33 33 34 34 32 32 33 33 32 30 29 27 24 25 26 24 22 21 21 19 17 18 16 17 20 18 16 16 15 13 14 14 15 15 14 14 14 14 14 13 12 12 11 11 9 8 8 7 7 7 8 8 8 8 11 11 13 13 11 14 18 15 12 11 11 12 10 9 8 7 7 7 8 9 10 9 9 10 11 12 12 12 12 14 14
34 33 33 35 33 32 34 35 33 31 31 28 25 26 26 24 22 21 20 19 18 19 18 19 20 18 16 15 15 14 14 14 14 14 13 13 12 12 13 12 12 12 11 10 10 8 8 8 7 6 8 9 12 15 17 17 17 15 13 16 19 16 14 13 12 11 9 8 7 7 6 6 7 8 9 9 9 10 11 13 14 14 13 13 13
35 34 34 35 35 34 35 36 35 33 31 29 27 27 26 25 23 22 21 19 21 22 21 21 19 18 17 15 14 14 14 14 13 14 13 13 12 11 12 12 12 11 10 9 9 8 7 8 7 6 8 11 15 18 18 18 18 17 16 16 17 16 15 14 12 9 7 7 6 6 6 6 7 7 8 8 9 10 12 13 14 15 14 13 13
37 36 35 36 35 36 37 36 35 33 31 31 30 28 27 26 24 24 22 21 23 25 22 20 19 18 19 16 15 14 13 13 13 13 12 12 12 11 12 12 11 10 9 7 7 8 8 8 8 7 8 11 16 18 17 17 18 18 17 16 16 16 14 13 11 9 7 6 6 6 6 6 7 7 7 8 9 10 11 13 14 15 15 14 14
39 38 37 36 36 37 38 36 34 33 32 31 30 29 27 27 26 25 22 21 25 25 23 21 19 19 20 17 15 14 13 13 13 13 12 12 11 11 11 12 11 9 8 8 8 8 8 9 10 7 7 13 18 18 17 17 18 19 18 17 16 15 13 11 9 9 8 7 6 6 6 6 6 7 7 7 9 10 11 11 12 13 14 13 13
41 40 39 38 37 38 38 35 34 34 33 30 30 29 28 27 27 25 23 23 24 24 23 21 19 21 20 18 15 14 13 13 13 12 12 12 11 11 10 11 11 10 8 8 7 6 7 9 11 7 7 16 21 20 19 18 19 19 18 17 16 14 12 11 9 8 7 7 7 6 5 5 6 8 8 8 8 8 9 9 10 11 11 11 11
40 41 41 40 38 38 38 36 35 34 33 31 30 30 29 27 25 24 24 24 23 24 23 21 20 21 20 18 16 15 15 14 13 13 12 11 12 12 11 12 12 11 10 9 7 7 7 7 9 8 8 16 21 20 20 19 19 18 17 17 15 14 12 10 9 7 6 5 5 4 4 4 6 8 9 10 10 10 8 7 7 7 8 9 9
39 40 41 40 37 36 37 36 36 35 34 32 31 31 29 28 25 23 25 25 24 24 24 22 22 22 20 18 16 15 15 15 14 14 13 13 14 13 13 13 13 12 11 10 9 9 8 8 8 8 8 13 18 19 19 19 18 17 16 15 13 12 11 9 8 7 6 5 4 3 3 4 6 7 8 9 10 11 10 10 9 8 7 8 9
38 39 39 38 37 35 35 36 36 37 36 33 32 32 31 29 25 25 27 25 24 24 24 24 23 23 21 19 17 16 15 15 15 15 14 14 15 14 14 14 12 11 10 10 10 10 9 10 9 7 9 13 17 18 18 18 17 16 14 13 11 10 9 8 7 7 6 5 4 3 3 4 5 5 6 7 8 10 10 11 12 11 9 9 8
35 38 39 38 37 37 36 36 37 37 37 35 33 34 33 29 27 29 29 26 25 25 25 24 24 24 22 20 18 16 15 15 15 15 15 16 16 15 14 13 11 10 9 9 10 9 8 9 9 8 9 15 19 18 18 17 16 14 12 11 10 9 8 6 6 6 5 5 4 3 3 3 3 4 4 4 6 8 8 9 11 12 12 11 9
35 38 40 39 37 37 37 36 37 38 37 36 35 34 33 31 29 30 30 27 26 27 26 25 24 24 22 20 18 16 16 16 16 15 15 17 17 16 14 13 11 11 10 9 10 10 9 9 10 10 9 15 20 19 18 14 11 11 11 9 6 6 5 4 5 5 5 5 5 5 4 3 3 3 2 2 4 6 6 6 8 9 11 13 11
38 39 39 38 36 36 37 37 38 38 37 36 36 35 33 31 29 29 30 27 25 26 26 25 24 23 21 19 18 17 17 16 16 16 17 18 18 16 15 13 13 12 12 11 10 10 10 10 11 11 10 14 18 20 19 12 9 13 11 5 2 2 1 2 5 5 6 6 6 6 6 5 4 3 2 1 1 4 5 5 5 6 9 11 11
35 37 37 37 37 37 38 39 40 39 38 37 36 35 32 30 28 29 29 26 24 24 25 24 23 21 21 20 19 18 17 17 17 17 19 20 18 17 15 14 13 13 13 12 11 11 12 12 13 12 13 16 18 19 17 12 11 12 8 3 2 3 1 4 6 6 6 7 6 7 7 6 6 5 3 2 2 4 5 6 5 5 6 8 10
36 38 40 40 39 38 39 39 40 40 38 37 36 35 33 30 28 28 26 24 23 24 25 24 23 22 21 21 20 19 18 18 18 19 20 20 18 17 15 14 13 13 13 13 13 12 13 13 14 14 14 17 19 18 15 11 11 13 8 5 4 2 2 5 7 5 6 7 7 8 8 6 6 6 4 2 2 4 5 5 4 4 5 6 8
37 39 41 42 39 38 39 39 40 39 38 37 36 35 34 32 31 29 27 24 24 26 28 27 25 24 23 22 21 20 19 19 19 18 18 17 17 16 15 14 13 13 13 13 13 13 13 13 14 14 14 17 19 18 16 12 12 14 11 7 4 3 4 7 6 2 5 6 6 8 9 8 8 7 5 3 2 2 3 3 2 3 5 6 7
39 39 38 38 38 38 39 40 39 39 38 37 36 36 35 33 33 31 29 27 25 25 27 28 27 25 24 23 22 20 19 19 18 17 16 15 15 14 14 14 14 13 12 13 14 14 14 14 13 14 14 16 20 20 18 15 15 16 12 9 8 7 7 10 7 3 2 5 6 8 8 7 9 9 6 4 2 1 2 4 5 4 5 5 6
38 37 36 38 38 38 40 39 39 38 37 37 37 37 36 34 32 31 29 29 28 26 27 28 27 26 25 24 23 21 19 18 17 16 15 14 12 13 13 13 13 14 13 14 15 14 15 15 14 14 14 14 17 19 20 17 17 17 14 12 9 9 10 11 10 8 4 2 5 7 8 8 10 11 9 6 3 3 4 4 4 4 4 4 6
36 36 38 39 38 39 39 38 38 37 37 37 37 36 36 34 33 31 29 28 28 28 28 28 27 27 27 26 24 23 20 18 17 16 14 12 11 12 14 13 13 14 14 15 15 14 14 14 14 14 14 14 15 17 20 20 19 17 15 14 10 10 12 9 11 10 4 3 3 4 8 9 9 12 12 9 5 4 4 3 2 3 4 5 7
35 36 36 36 37 38 38 38 37 37 37 37 37 36 35 35 34 32 30 29 28 29 29 28 29 29 28 27 25 23 20 18 16 15 14 12 11 13 15 13 13 14 14 14 15 14 13 13 12 13 13 15 15 15 18 19 19 17 17 16 14 14 11 7 9 10 5 3 3 3 9 11 9 10 13 12 8 4 3 1 2 4 7 8 8
32 33 33 35 36 37 37 37 36 36 37 37 37 37 35 35 34 34 33 32 31 31 30 30 30 30 29 28 26 23 20 18 16 15 14 12 12 14 14 13 13 13 13 13 13 13 12 12 12 12 13 15 16 16 16 16 17 17 17 17 17 17 12 8 10 11 7 4 4 4 9 13 11 8 8 12 10 4 1 2 5 7 7 7 7
Wind_Direction
160 156 155 157 159 156 147 144 141 142 138 133 129 125 124 124 125 123 120 115 112 111 109 109 106 99 92 86 81 84 95 97 104 118 121 120 118 115 113 114 112 103 102 103 104 104 104 107 107 111 112 114 117 115 111 106 103 100 97 95 93 92 91 89 86 84 83 83 84 84 83 83 81 80 80 80 79 73 70 72 72 74 71 70 71
159 156 155 157 160 155 147 145 143 143 140 134 130 129 129 129 129 124 122 117 114 113 112 111 105 99 92 87 82 84 95 98 98 106 113 119 121 119 117 117 114 107 106 104 102 101 104 110 111 113 114 118 120 118 113 107 104 101 98 95 92 90 89 87 84 80 77 77 79 79 78 79 78 77 78 81 82 71 65 67 67 72 73 71 71
153 155 155 156 158 154 148 146 144 144 142 136 133 133 132 133 131 127 124 119 119 117 115 114 107 100 96 91 85 84 95 102 101 104 109 115 120 122 121 116 112 113 112 106 102 103 108 112 111 113 115 119 123 122 115 109 105 101 98 95 92 90 87 84 80 76 72 71 71 72 74 77 76 77 77 80 85 79 73 69 67 70 72 70 69
153 154 153 154 157 155 150 146 145 145 143 139 137 136 136 136 132 130 126 124 124 120 118 115 107 100 99 96 88 86 95 104 102 104 109 113 117 121 124 118 112 116 119 109 105 109 111 111 112 113 116 120 124 123 117 111 107 102 99 94 91 86 82 77 71 70 70 69 66 67 71 74 76 77 75 75 80 81 80 75 73 73 71 69 67
154 154 154 154 157 156 151 146 146 146 144 141 140 139 139 137 132 132 130 129 126 122 121 115 107 103 103 98 91 87 95 107 109 106 107 113 118 119 121 123 117 114 116 109 109 115 113 112 114 115 116 119 121 120 117 112 108 104 97 90 82 74 67 61 54 49 59 74 68 69 71 72 78 75 70 72 76 77 78 75 75 75 73 70 67
155 156 156 156 157 156 152 147 147 146 145 144 143 141 140 137 135 135 133 131 129 125 123 116 109 109 107 100 93 90 95 108 115 114 112 112 116 120 122 127 125 113 113 111 114 118 115 115 115 115 115 115 117 118 116 111 108 103 94 84 74 66 58 47 39 30 39 110 85 81 79 73 76 74 69 69 73 73 74 73 72 71 72 71 66
156 156 158 157 157 154 151 148 148 147 146 146 144 142 139 137 138 136 136 134 132 129 123 118 114 115 109 102 100 94 97 108 116 118 120 119 115 121 124 127 125 117 114 112 117 118 117 119 118 117 116 114 116 117 116 112 107 99 86 74 64 56 50 40 36 27 50 124 102 95 85 73 73 72 67 64 68 69 69 71 70 68 68 69 66
153 155 158 157 156 153 152 150 149 149 148 147 144 141 138 137 139 138 138 138 136 132 126 122 119 119 112 108 108 101 99 107 119 120 121 125 122 122 125 126 124 119 115 112 117 120 121 122 121 120 118 116 116 117 117 113 104 95 79 65 56 49 42 31 34 37 79 112 100 97 86 74 69 65 62 59 62 62 63 67 68 67 67 67 64
153 156 157 156 156 154 152 151 151 150 149 146 143 141 139 139 139 139 140 139 138 134 130 129 126 122 117 116 112 107 103 107 121 125 123 125 127 127 129 134 134 131 125 118 123 129 127 125 123 122 121 119 118 118 118 113 100 88 72 59 50 42 32 24 37 64 100 110 97 92 84 74 64 60 60 56 55 53 54 58 63 66 65 63 62
154 157 157 156 156 156 154 153 152 150 148 145 144 142 141 142 141 142 142 140 139 137 135 134 131 125 125 124 116 113 109 108 120 130 130 129 131 135 139 141 138 137 134 128 130 133 129 126 124 122 122 121 120 120 119 111 97 80 62 52 42 33 28 25 47 88 118 117 98 88 83 73 61 61 60 53 52 48 46 50 58 61 62 60 58
157 158 158 156 156 157 155 153 151 149 148 145 145 144 143 144 144 145 144 143 143 142 140 136 133 131 133 128 122 118 113 113 119 133 138 137 136 139 144 143 140 136 140 136 132 135 131 127 124 123 123 122 122 121 118 109 93 74 57 45 36 34 36 37 54 96 134 124 100 89 86 72 59 59 54 48 48 42 38 40 49 54 54 52 46
159 160 158 156 156 158 156 152 150 148 148 147 146 147 147 146 147 148 147 147 148 147 143 140 139 137 135 128 126 123 117 118 121 134 141 145 142 137 139 143 147 146 147 142 136 138 132 127 124 124 124 122 123 119 115 105 90 71 55 40 34 43 49 54 65 99 132 118 97 89 85 68 56 55 47 42 40 36 34 34 41 46 46 47 43
159 161 158 156 157 159 156 152 151 150 149 148 148 148 148 149 148 149 151 153 152 152 148 147 147 142 140 137 137 132 125 122 126 137 140 147 148 143 144 147 154 156 153 145 142 138 132 129 127 126 125 123 122 117 110 99 88 68 52 39 40 53 57 68 85 104 118 106 94 88 78 61 55 51 43 36 32 33 34 34 40 42 42 45 42
160 161 158 157 156 158 156 153 152 151 151 151 152 150 150 150 150 153 155 157 156 157 155 154 153 152 153 154 153 144 138 129 131 143 140 140 147 150 151 152 156 160 158 149 144 139 134 132 130 129 126 124 119 112 103 95 82 61 47 43 53 61 61 79 99 106 106 95 86 78 69 59 54 47 40 33 28 30 33 35 40 40 38 37 36
161 162 160 158 155 157 157 155 153 153 155 155 154 153 153 153 155 158 159 160 161 161 160 160 161 163 167 163 160 152 145 135 133 146 143 138 148 154 155 158 160 165 161 151 147 144 139 134 133 132 128 123 114 105 99 94 76 53 43 50 64 64 63 87 107 108 101 87 75 69 65 58 51 42 36 31 26 27 28 32 36 37 36 34 34
160 160 160 159 156 157 157 156 157 156 157 157 158 156 156 157 159 162 163 166 166 164 164 167 170 174 176 172 172 166 158 146 137 146 147 143 151 156 159 162 165 172 165 153 155 151 142 136 135 133 128 120 110 105 101 89 66 48 44 57 69 62 63 92 111 110 100 81 71 67 61 56 51 42 34 29 24 22 22 25 26 26 29 30 30
158 159 161 162 160 157 157 159 161 160 161 160 160 160 161 160 161 164 166 169 169 168 171 173 175 178 184 186 184 178 170 163 150 149 152 152 158 162 165 167 169 178 170 159 161 156 146 140 135 131 124 119 115 109 92 67 52 41 45 59 64 55 57 91 113 109 91 73 67 62 57 55 53 45 37 29 21 21 21 19 20 18 21 24 24
159 161 163 164 162 158 159 161 165 164 163 163 163 164 164 163 164 164 166 169 170 172 177 182 181 180 189 194 189 182 176 170 158 154 157 161 166 169 171 173 176 181 172 165 166 159 149 141 134 133 130 130 123 95 50 38 41 37 42 52 54 48 50 84 110 99 75 64 65 65 61 57 53 47 41 31 22 24 19 15 20 20 17 16 18
162 164 164 167 165 160 160 164 168 166 165 166 165 167 167 167 165 164 167 170 172 175 181 187 187 186 191 192 186 181 178 172 161 159 163 166 171 171 174 178 181 181 172 166 166 159 153 148 147 154 157 170 168 31 19 32 38 37 38 44 49 49 57 86 109 93 65 61 67 66 60 55 50 44 37 29 26 25 16 17 22 21 15 17 20
163 166 165 168 167 161 162 167 170 168 170 169 167 169 169 169 166 166 169 170 173 176 179 185 185 183 182 181 177 174 174 171 165 165 166 166 172 174 177 178 176 175 167 165 165 162 162 164 177 186 193 212 211 226 41 39 34 34 31 38 47 52 71 94 108 88 63 65 70 65 59 53 45 35 32 29 31 30 24 25 26 25 22 27 30
162 166 167 168 166 164 166 170 172 172 174 171 171 172 170 171 170 169 170 172 174 173 176 175 169 162 159 158 157 160 163 166 166 168 166 163 167 169 169 165 162 163 161 165 167 170 177 186 199 203 210 207 195 182 49 20 23 24 18 32 45 52 79 94 95 76 62 71 75 69 60 47 42 39 40 40 44 47 44 41 37 41 42 43 45
162 166 169 171 167 167 171 173 174 175 176 175 174 173 172 175 173 170 171 174 175 171 169 161 151 143 140 137 136 140 146 155 162 165 163 160 160 159 158 156 156 159 163 170 176 181 184 188 189 193 201 181 158 92 13 4 11 11 9 26 51 47 54 144 13 45 57 74 73 64 55 45 48 52 55 57 60 62 59 57 55 56 55 54 55
163 168 171 173 171 171 174 176 176 177 178 178 177 175 176 178 173 172 173 174 173 167 160 152 146 137 132 130 126 126 129 137 146 155 157 155 156 156 156 157 160 163 168 173 175 175 169 159 150 141 298 12 25 13 359 355 2 4 2 1 297 279 298 256 302 21 64 75 69 55 50 55 62 64 68 69 67 66 65 64 62 60 58 55 54
168 171 173 175 176 176 178 180 179 179 180 180 179 178 181 180 175 174 175 175 169 162 155 149 143 136 132 130 128 123 122 128 136 148 157 157 157 159 160 162 163 164 166 167 164 159 147 131 86 8 349 355 5 3 345 331 344 345 340 325 269 273 283 240 303 59 78 77 69 60 62 70 75 74 73 73 70 67 66 66 63 61 57 51 47
171 172 174 176 179 181 181 183 183 182 183 183 183 183 183 180 177 177 177 175 167 158 152 147 143 141 137 134 137 134 128 132 137 142 158 165 164 166 168 168 167 168 170 169 166 163 165 169 119 37 5 12 17 358 335 317 331 338 329 286 251 254 234 203 112 84 89 85 77 75 79 81 81 79 78 76 73 71 68 66 60 56 52 46 40
171 173 177 179 181 184 185 185 186 186 187 187 187 187 184 180 181 179 177 175 169 161 155 151 150 150 149 146 150 153 147 150 151 144 159 173 174 178 178 178 179 182 185 184 184 192 210 207 186 7 340 324 308 325 324 319 325 345 327 225 234 232 197 170 119 108 107 98 89 86 88 89 89 87 85 81 74 71 65 55 47 39 40 44 37
173 177 180 181 182 184 187 189 189 189 190 191 192 191 186 183 182 180 178 174 171 167 163 159 157 159 163 164 167 172 166 169 178 171 175 181 182 187 189 191 191 195 197 191 194 211 228 235 249 298 297 248 236 235 221 215 277 307 219 211 224 207 181 154 127 121 116 106 96 92 93 96 91 78 70 65 52 48 47 40 35 33 37 40 28
176 179 181 182 182 184 189 191 190 190 191 194 195 194 189 185 185 183 179 174 172 171 168 164 164 169 174 178 180 185 183 186 195 196 199 195 190 192 194 198 199 203 208 202 202 220 241 253 253 252 241 225 222 212 194 176 183 216 212 210 208 188 167 150 136 125 117 109 101 94 90 87 75 59 47 39 28 31 43 39 35 43 46 31 8
178 181 182 183 185 186 190 192 192 190 192 195 197 196 190 187 187 183 177 174 173 170 169 168 171 179 180 183 190 197 199 200 205 208 213 213 208 205 203 206 208 212 221 221 220 232 247 251 240 220 205 214 218 205 174 151 154 184 195 192 196 184 166 153 139 126 118 111 102 93 83 76 68 61 55 47 44 47 58 59 51 46 36 18 11
180 182 182 184 187 189 191 194 194 192 193 196 197 196 190 188 187 179 174 175 174 170 172 174 175 181 182 187 199 207 211 209 211 217 224 226 223 221 219 221 221 223 231 233 233 239 239 229 220 204 185 196 219 215 139 131 142 157 169 179 193 187 170 155 136 126 118 110 102 92 81 74 70 64 59 54 51 53 59 66 65 51 32 31 37
182 182 183 185 188 190 193 196 196 194 194 196 197 196 190 188 186 180 177 178 177 175 178 177 176 183 189 198 207 213 218 215 217 225 230 230 226 226 229 230 229 228 230 232 233 230 217 208 197 173 157 160 180 177 118 128 146 158 167 177 189 184 169 156 135 127 118 109 100 92 82 72 69 63 60 58 56 59 60 63 66 61 53 53 55
183 184 185 186 188 191 193 195 196 194 195 196 196 196 191 187 188 187 185 185 185 186 183 178 181 193 204 208 212 216 220 221 225 229 231 228 222 225 227 224 225 224 221 222 222 213 202 193 180 160 150 145 138 127 117 122 139 156 167 172 182 183 172 160 137 128 119 110 101 91 84 72 66 60 58 58 62 67 66 64 64 65 63 62 63
184 186 187 187 190 192 193 195 196 194 195 195 194 196 193 190 192 192 191 192 195 194 189 185 191 203 208 206 210 217 221 224 225 225 223 220 218 220 218 213 214 215 211 209 206 201 195 179 170 162 148 137 128 125 120 119 127 140 152 162 175 181 171 155 137 129 119 109 100 90 85 78 70 61 57 58 64 70 68 65 64 65 68 68 68
183 186 187 187 191 192 192 193 195 195 195 194 194 198 196 195 197 196 199 203 200 194 191 192 199 207 206 204 208 215 220 221 220 218 215 214 216 214 209 208 207 206 201 197 194 188 185 174 170 165 145 134 132 133 127 120 121 127 136 151 166 170 161 147 136 132 123 108 95 86 83 78 68 58 58 65 70 69 65 63 62 63 67 71 70
183 186 187 187 190 190 190 191 194 195 194 193 195 198 199 199 201 201 203 203 195 191 191 195 202 207 206 206 210 214 217 218 218 217 213 210 212 207 202 204 201 197 191 182 178 173 172 165 161 160 146 138 139 141 137 127 120 119 127 137 150 157 154 146 140 134 124 114 102 93 87 73 58 48 53 70 75 69 64 63 60 58 61 68 68
184 186 186 186 187 187 188 190 193 194 193 193 195 198 200 200 200 201 201 195 189 190 194 196 202 206 207 209 211 214 217 220 220 216 213 209 209 205 200 200 195 185 177 166 163 161 162 160 151 146 144 146 146 143 140 135 124 118 122 130 140 151 151 143 136 126 119 115 110 106 95 75 54 45 50 62 67 65 64 64 61 58 58 62 63
185 185 185 184 183 184 187 190 192 192 191 191 193 196 198 198 198 199 198 192 189 191 193 194 199 204 208 212 212 213 216 220 218 211 209 208 207 205 197 191 183 172 165 160 160 151 151 160 148 129 141 152 150 145 140 138 131 125 124 126 132 139 140 136 130 124 123 119 112 107 93 69 50 51 58 58 56 57 57 59 62 63 61 59 58
186 186 186 185 183 182 185 190 191 191 189 188 190 193 196 197 197 199 200 199 197 194 193 194 198 204 211 213 213 212 214 216 213 206 205 206 203 198 188 177 171 167 165 160 158 151 146 159 148 125 137 155 154 150 144 138 134 131 127 126 129 130 129 132 134 133 136 126 113 101 79 59 52 58 63 60 53 47 46 48 49 50 52 51 51
186 186 186 186 185 183 184 188 189 189 188 187 188 191 194 195 195 198 201 202 201 197 195 196 199 206 211 212 214 212 211 212 209 204 203 201 193 187 179 171 169 170 171 167 164 164 159 164 161 138 134 156 163 158 149 142 134 130 128 126 127 128 129 133 138 142 146 139 126 108 77 62 65 68 65 57 51 46 45 45 35 26 22 25 36
184 184 184 185 186 184 183 186 187 187 187 187 187 188 190 191 192 195 196 196 196 196 196 197 200 205 208 209 212 212 211 211 209 205 200 194 186 181 175 172 175 176 178 181 178 176 173 170 170 157 143 154 163 161 156 150 136 125 124 127 127 127 130 137 139 136 138 139 139 129 98 78 75 81 72 52 41 37 41 43 36 32 26 16 22
182 182 183 185 186 184 183 183 185 186 185 185 184 184 185 187 188 190 191 189 191 193 194 196 200 202 204 207 210 213 211 211 211 205 198 191 182 179 178 177 181 185 189 192 189 186 180 173 169 165 160 159 160 160 162 157 138 123 121 122 124 126 128 139 146 144 143 144 153 154 132 109 96 98 87 50 29 23 30 39 34 37 42 37 35
181 184 184 186 186 185 183 182 182 184 184 185 183 183 186 187 188 189 189 188 191 195 193 195 198 198 201 205 208 211 210 210 210 203 194 187 180 179 181 182 186 194 201 198 195 194 186 182 176 167 167 169 167 166 168 166 147 139 137 120 107 123 130 139 153 162 168 167 169 167 156 143 133 130 118 48 25 18 20 29 29 34 42 42 37
183 185 185 185 185 184 183 183 182 183 184 185 184 184 187 189 192 192 189 188 192 196 194 192 194 195 198 203 205 207 206 204 201 196 189 184 182 183 184 188 194 199 208 206 200 200 197 196 190 180 173 171 174 175 177 182 164 143 133 119 105 123 129 190 171 168 180 187 188 180 172 166 158 159 170 196 341 359 358 358 14 34 37 31 25
183 185 185 184 184 184 183 183 184 184 185 185 185 186 187 189 194 195 191 188 189 190 189 187 191 195 195 198 201 201 199 195 191 188 186 186 186 188 190 195 202 205 211 211 201 198 200 198 195 194 185 174 173 177 183 195 184 159 131 100 111 108 269 236 191 180 191 198 205 195 185 183 179 178 179 199 288 332 339 332 348 22 28 20 18
186 187 186 185 185 184 183 183 184 185 185 185 185 185 186 186 189 190 188 184 181 181 181 182 187 193 194 194 195 194 190 187 186 185 186 189 189 191 195 199 206 209 208 207 199 194 195 195 194 195 195 188 180 179 188 204 206 196 178 138 116 105 240 197 173 192 208 206 213 208 207 210 197 189 191 209 288 315 326 326 337 14 25 21 19
191 190 188 187 185 182 182 183 183 184 185 185 185 185 185 186 185 184 182 178 175 177 180 181 185 192 192 189 188 187 184 182 183 186 189 193 195 198 203 206 211 213 209 205 200 194 193 197 198 194 197 198 190 183 189 199 205 204 199 188 194 229 199 158 148 193 214 213 217 208 216 227 211 195 196 215 272 303 339 11 48 47 38 30 20
194 191 188 187 185 182 182 183 183 184 185 184 185 185 185 188 188 186 185 182 177 178 183 185 188 191 189 185 183 182 181 181 181 186 194 199 205 209 211 211 211 212 211 205 199 197 197 197 198 197 197 198 196 191 189 191 193 198 207 212 220 236 199 166 165 163 176 226 228 207 211 224 212 202 204 213 229 299 50 77 84 67 42 24 9
192 188 187 187 185 183 183 184 184 185 185 185 185 187 188 189 189 188 187 186 182 179 182 185 187 187 185 182 181 180 181 183 184 188 195 201 210 214 211 209 208 210 209 202 197 198 200 200 198 201 203 203 205 203 197 192 191 196 206 208 214 222 201 185 188 176 136 181 221 215 215 216 213 210 210 212 194 127 98 87 75 52 32 16 356
187 186 187 187 185 184 183 184 185 185 185 185 186 188 191 191 190 188 186 185 184 181 182 183 183 183 182 179 179 182 184 187 191 195 198 202 209 207 203 204 204 203 202 199 197 195 198 202 201 203 208 206 206 210 208 201 198 198 196 194 191 187 187 190 194 186 147 132 185 220 211 209 221 219 213 212 195 149 117 84 54 27 4 352 345
186 186 186 185 184 184 183 183 185 186 185 186 187 189 192 192 191 188 185 183 181 180 180 180 181 182 180 178 180 183 185 188 192 198 201 202 204 199 194 197 196 194 194 195 195 194 194 198 201 204 208 206 201 204 208 205 204 202 194 188 177 167 170 174 182 184 161 136 159 195 196 198 216 220 211 209 201 171 141 81 354 339 340 339 343
185 184 185 185 185 184 184 183 184 186 185 186 188 190 192 193 191 189 187 183 180 178 177 177 180 182 181 180 180 182 185 188 190 195 198 198 199 196 193 194 195 193 194 196 198 200 200 199 199 199 201 202 199 196 198 198 199 198 194 192 182 173 175 171 169 176 171 148 141 164 194 200 213 224 213 209 207 200 220 334 339 339 354 7 14